Location: Pedholt
(56.0260°N, 10.2097°E)
Time: 20:19:36
(UTC+00:00)

Transit 2A Rocket - Pass Details

Date: 04 August 2021
Orbit: 586 x 917 km, 66.7° (Epoch: 27 September)

Event Time Altitude Azimuth Distance (km) Brightness Sun altitude
Rises 13:26:02 0° 217° (SW) 2,890 8.8 44.9°
Reaches altitude 10° 13:28:12 10° 216° (SW) 2,022 8.2 44.6°
Maximum altitude 13:32:45 77° 131° (SE) 699 5.6 44.2°
Drops below altitude 10° 13:37:47 10° 46° (NE) 2,228 7.1 43.7°
Sets 13:40:17 0° 45° (NE) 3,211 7.8 43.4°
